Pasco, WA
on Monday, November 5, 2012

Monday
Previous Day Next Day
Daily Summary
 ActualAverageRecord
Temperature
Mean Temperature °F / °C 45°F / 7°C  
Max Temperature 68°F / 20°C 56°F / 13°C 68°F / 20°C (2012)
Min Temperature 44°F / 7°C 34°F / 1°C 11°F / -11°C (2003)
Degree Days
Heating Degree Days 9 20  
Month to date heating degree days 55 97  
Since 1 July heating degree days 499 615  
Cooling Degree Days 0 0  
Month to date cooling degree days 0 0  
Year to date cooling degree days 788 710  
Growing Degree Days6 (Base °F / °C )  
Moisture
Dew Point 51°F / 11°C   
Average Humidity 79    
Maximum Humidity 100    
Minimum Humidity 58    
Precipitation
Precipitation 0.00 in / 0.00 cm in / cm 0.56 in / 1.42 cm (1991)
Month to date precipitation 0.08  
Year to date precipitation 7.54  
Snow
Snow 0.00 in / 0.00 cm in / cm in / cm ()
Snow Depth 0.00 in / 0.00 cm   
Wind
Wind Speed 7 mph / 11 km/h   
Max Wind Speed 18 mph / 29 km/h   
Max Gust Speed 23 mph / 37 km/h   
Visibility 10 miles / 16 kilometers   
Events     

Key: T is trace of precipitation, MM is missing value
Source: NWS Daily Summary
Time(PST)TemperatureDew PointHumidity Pressure Visibility Wind DirectionWind SpeedGust SpeedPrecipitationEvents Conditions
12:53 AM 59.0°F / 15.0°C 52.0°F / 11.1°C 78% 30.25 in / 1024.1 hPa 10.0 miles / 16.1 kilometers South 3.5 mph / 5.6 km/h - N/A   Clear
1:53 AM 62.1°F / 16.7°C 53.1°F / 11.7°C 72% 30.26 in / 1024.5 hPa 10.0 miles / 16.1 kilometers WSW 9.2 mph / 14.8 km/h - N/A   Clear
2:53 AM 61.0°F / 16.1°C 53.1°F / 11.7°C 75% 30.22 in / 1023.4 hPa 10.0 miles / 16.1 kilometers SSW 15.0 mph / 24.1 km/h - N/A   Clear
3:53 AM 60.1°F / 15.6°C 52.0°F / 11.1°C 75% 30.22 in / 1023.1 hPa 10.0 miles / 16.1 kilometers Variable 3.5 mph / 5.6 km/h - N/A   Clear
4:53 AM 61.0°F / 16.1°C 53.1°F / 11.7°C 75% 30.21 in / 1022.8 hPa 10.0 miles / 16.1 kilometers SSW 12.7 mph / 20.4 km/h - N/A   Clear
5:53 AM 61.0°F / 16.1°C 53.1°F / 11.7°C 75% 30.21 in / 1022.8 hPa 10.0 miles / 16.1 kilometers SSW 15.0 mph / 24.1 km/h - N/A   Clear
6:53 AM 61.0°F / 16.1°C 53.1°F / 11.7°C 75% 30.22 in / 1023.2 hPa 10.0 miles / 16.1 kilometers SW 11.5 mph / 18.5 km/h - N/A   Clear
7:53 AM 63.0°F / 17.2°C 54.0°F / 12.2°C 72% 30.24 in / 1023.8 hPa 10.0 miles / 16.1 kilometers WNW 5.8 mph / 9.3 km/h - N/A   Clear
8:53 AM 64.9°F / 18.3°C 55.0°F / 12.8°C 70% 30.25 in / 1024.2 hPa 10.0 miles / 16.1 kilometers WSW 3.5 mph / 5.6 km/h - N/A   Clear
9:53 AM 66.9°F / 19.4°C 55.9°F / 13.3°C 68% 30.26 in / 1024.6 hPa 10.0 miles / 16.1 kilometers WSW 4.6 mph / 7.4 km/h - N/A   Clear
10:53 AM 68.0°F / 20.0°C 55.9°F / 13.3°C 65% 30.26 in / 1024.7 hPa 10.0 miles / 16.1 kilometers WNW 9.2 mph / 14.8 km/h - N/A   Clear
11:53 AM 66.9°F / 19.4°C 55.0°F / 12.8°C 66% 30.26 in / 1024.5 hPa 10.0 miles / 16.1 kilometers NW 8.1 mph / 13.0 km/h - N/A   Clear
12:53 PM 66.9°F / 19.4°C 53.1°F / 11.7°C 61% 30.25 in / 1024.2 hPa 10.0 miles / 16.1 kilometers NW 5.8 mph / 9.3 km/h - N/A   Clear
1:53 PM 68.0°F / 20.0°C 53.1°F / 11.7°C 59% 30.23 in / 1023.7 hPa 10.0 miles / 16.1 kilometers NNW 9.2 mph / 14.8 km/h - N/A   Clear
2:53 PM 66.9°F / 19.4°C 52.0°F / 11.1°C 59% 30.23 in / 1023.6 hPa 10.0 miles / 16.1 kilometers North 6.9 mph / 11.1 km/h - N/A   Clear
3:53 PM 64.0°F / 17.8°C 50.0°F / 10.0°C 60% 30.23 in / 1023.6 hPa 10.0 miles / 16.1 kilometers NNE 3.5 mph / 5.6 km/h - N/A   Clear
4:53 PM 61.0°F / 16.1°C 48.9°F / 9.4°C 64% 30.22 in / 1023.3 hPa 10.0 miles / 16.1 kilometers Calm Calm - N/A   Clear
5:53 PM 55.0°F / 12.8°C 50.0°F / 10.0°C 83% 30.22 in / 1023.2 hPa 10.0 miles / 16.1 kilometers Calm Calm - N/A   Clear
6:53 PM 51.1°F / 10.6°C 48.0°F / 8.9°C 89% 30.21 in / 1022.9 hPa 10.0 miles / 16.1 kilometers East 3.5 mph / 5.6 km/h - N/A   Clear
7:53 PM 48.9°F / 9.4°C 46.9°F / 8.3°C 93% 30.20 in / 1022.7 hPa 10.0 miles / 16.1 kilometers NNW 4.6 mph / 7.4 km/h - N/A   Clear
8:53 PM 46.0°F / 7.8°C 45.0°F / 7.2°C 96% 30.20 in / 1022.5 hPa 10.0 miles / 16.1 kilometers NNW 3.5 mph / 5.6 km/h - N/A   Clear
9:53 PM 46.0°F / 7.8°C 45.0°F / 7.2°C 96% 30.19 in / 1022.1 hPa 10.0 miles / 16.1 kilometers NW 5.8 mph / 9.3 km/h - N/A   Clear
10:53 PM 45.0°F / 7.2°C 44.1°F / 6.7°C 97% 30.18 in / 1021.8 hPa 10.0 miles / 16.1 kilometers NNW 4.6 mph / 7.4 km/h - N/A   Clear
11:53 PM 45.0°F / 7.2°C 43.0°F / 6.1°C 93% 30.17 in / 1021.6 hPa 10.0 miles / 16.1 kilometers NNW 4.6 mph / 7.4 km/h - N/A   Clear
Moon Phase
Nov. 05 Nov. 06 Nov. 13 Nov. 20 Nov. 28
Sunrise:06:44 AM (PST) Moon Rise:10:18 PM (PST)11/5
Sunset:04:35 PM (PST) Moon Set:12:06 PM (PST)11/5

Copyright © 2014 The Weather Underground, Inc.